Time,TemperatureF,DewpointF,PressureIn,WindDirection,WindDirectionDegrees,WindSpeedMPH,WindSpeedGustMPH,Humidity,HourlyPrecipIn,Conditions,Clouds,dailyrainin,SoftwareType,DateUTC
2013-05-02 00:06:00,52.0,40.0,30.04,NE,53,0.0,1.0,63,0.00,,,0.00,weatherlink.com 1.10,2013-05-02 07:06:00,
2013-05-02 00:21:00,51.8,40.0,30.04,NE,53,0.0,0.0,65,0.00,,,0.00,weatherlink.com 1.10,2013-05-02 07:21:00,
2013-05-02 00:36:00,50.8,40.0,30.05,NE,53,0.0,0.0,67,0.00,,,0.00,weatherlink.com 1.10,2013-05-02 07:36:00,
2013-05-02 00:51:00,50.2,38.0,30.05,NE,48,0.0,1.0,64,0.00,,,0.00,weatherlink.com 1.10,2013-05-02 07:51:00,
2013-05-02 01:06:00,50.0,37.0,30.05,NE,48,0.0,0.0,62,0.00,,,0.00,weatherlink.com 1.10,2013-05-02 08:06:00,
2013-05-02 01:21:00,49.1,36.0,30.06,NE,49,0.0,0.0,61,0.00,,,0.00,weatherlink.com 1.10,2013-05-02 08:21:00,
2013-05-02 01:36:00,48.9,35.0,30.06,NE,49,0.0,0.0,60,0.00,,,0.00,weatherlink.com 1.10,2013-05-02 08:36:00,
2013-05-02 01:51:00,48.6,36.0,30.06,NE,49,0.0,0.0,62,0.00,,,0.00,weatherlink.com 1.10,2013-05-02 08:51:00,
2013-05-02 02:06:00,48.3,37.0,30.06,NE,48,0.0,0.0,65,0.00,,,0.00,weatherlink.com 1.10,2013-05-02 09:06:00,
2013-05-02 02:21:00,48.0,37.0,30.06,NE,49,0.0,0.0,65,0.00,,,0.00,weatherlink.com 1.10,2013-05-02 09:21:00,
2013-05-02 02:36:00,47.9,37.0,30.06,NE,49,0.0,0.0,65,0.00,,,0.00,weatherlink.com 1.10,2013-05-02 09:36:00,
2013-05-02 02:51:00,47.7,38.0,30.06,NE,49,0.0,0.0,69,0.00,,,0.00,weatherlink.com 1.10,2013-05-02 09:51:00,
2013-05-02 03:06:00,47.3,38.0,30.06,NE,48,0.0,0.0,70,0.00,,,0.00,weatherlink.com 1.10,2013-05-02 10:06:00,
2013-05-02 03:21:00,46.7,38.0,30.06,NE,48,0.0,0.0,71,0.00,,,0.00,weatherlink.com 1.10,2013-05-02 10:21:00,
2013-05-02 03:36:00,46.4,37.0,30.06,NE,49,0.0,0.0,71,0.00,,,0.00,weatherlink.com 1.10,2013-05-02 10:36:00,
2013-05-02 03:51:00,46.2,38.0,30.07,NE,49,0.0,0.0,72,0.00,,,0.00,weatherlink.com 1.10,2013-05-02 10:51:00,
2013-05-02 04:06:00,46.0,37.0,30.07,NE,49,0.0,0.0,71,0.00,,,0.00,weatherlink.com 1.10,2013-05-02 11:06:00,
2013-05-02 04:21:00,46.1,37.0,30.07,NE,49,0.0,0.0,71,0.00,,,0.00,weatherlink.com 1.10,2013-05-02 11:21:00,
2013-05-02 04:36:00,46.3,37.0,30.07,NE,49,0.0,0.0,71,0.00,,,0.00,weatherlink.com 1.10,2013-05-02 11:36:00,
2013-05-02 04:51:00,46.1,38.0,30.07,NE,49,0.0,0.0,72,0.00,,,0.00,weatherlink.com 1.10,2013-05-02 11:51:00,
2013-05-02 05:06:00,45.8,37.0,30.08,NE,48,0.0,0.0,72,0.00,,,0.00,weatherlink.com 1.10,2013-05-02 12:06:00,
2013-05-02 05:21:00,45.4,36.0,30.08,NE,48,0.0,0.0,71,0.00,,,0.00,weatherlink.com 1.10,2013-05-02 12:21:00,
2013-05-02 05:37:00,45.1,37.0,30.08,NE,49,0.0,0.0,73,0.00,,,0.00,weatherlink.com 1.10,2013-05-02 12:37:00,
2013-05-02 05:52:00,44.5,37.0,30.08,NE,49,0.0,0.0,74,0.00,,,0.00,weatherlink.com 1.10,2013-05-02 12:52:00,
2013-05-02 06:07:00,44.3,37.0,30.08,NE,49,0.0,0.0,74,0.00,,,0.00,weatherlink.com 1.10,2013-05-02 13:07:00,
2013-05-02 06:22:00,44.3,37.0,30.09,NE,48,0.0,0.0,76,0.00,,,0.00,weatherlink.com 1.10,2013-05-02 13:22:00,
2013-05-02 06:37:00,44.5,37.0,30.09,NE,49,0.0,0.0,76,0.00,,,0.00,weatherlink.com 1.10,2013-05-02 13:37:00,
2013-05-02 06:52:00,45.2,39.0,30.10,NE,48,0.0,0.0,78,0.00,,,0.00,weatherlink.com 1.10,2013-05-02 13:52:00,
2013-05-02 07:07:00,46.4,39.0,30.10,NE,49,0.0,0.0,76,0.00,,,0.00,weatherlink.com 1.10,2013-05-02 14:07:00,
2013-05-02 07:22:00,48.1,40.0,30.10,NE,48,0.0,0.0,74,0.00,,,0.00,weatherlink.com 1.10,2013-05-02 14:22:00,
2013-05-02 07:37:00,49.7,41.0,30.10,NE,48,0.0,0.0,72,0.00,,,0.00,weatherlink.com 1.10,2013-05-02 14:37:00,
2013-05-02 07:52:00,51.2,42.0,30.10,NE,49,0.0,0.0,71,0.00,,,0.00,weatherlink.com 1.10,2013-05-02 14:52:00,
2013-05-02 08:07:00,53.5,44.0,30.10,NE,49,0.0,0.0,69,0.00,,,0.00,weatherlink.com 1.10,2013-05-02 15:07:00,
2013-05-02 08:22:00,56.1,45.0,30.11,NE,48,0.0,0.0,66,0.00,,,0.00,weatherlink.com 1.10,2013-05-02 15:22:00,
2013-05-02 08:37:00,59.5,47.0,30.11,NE,49,0.0,0.0,64,0.00,,,0.00,weatherlink.com 1.10,2013-05-02 15:37:00,
2013-05-02 08:52:00,63.6,47.0,30.11,NE,48,0.0,0.0,55,0.00,,,0.00,weatherlink.com 1.10,2013-05-02 15:52:00,
2013-05-02 09:07:00,66.7,36.0,30.11,South,188,1.0,1.0,32,0.00,,,0.00,weatherlink.com 1.10,2013-05-02 16:07:00,
2013-05-02 09:22:00,69.7,36.0,30.11,NW,316,0.0,2.0,29,0.00,,,0.00,weatherlink.com 1.10,2013-05-02 16:22:00,
2013-05-02 09:37:00,72.3,33.0,30.11,North,11,0.0,1.0,24,0.00,,,0.00,weatherlink.com 1.10,2013-05-02 16:37:00,
2013-05-02 09:52:00,74.9,34.0,30.10,NNW,330,1.0,3.0,22,0.00,,,0.00,weatherlink.com 1.10,2013-05-02 16:52:00,
2013-05-02 10:07:00,76.7,34.0,30.10,SW,233,0.0,3.0,21,0.00,,,0.00,weatherlink.com 1.10,2013-05-02 17:07:00,
2013-05-02 10:23:00,78.3,30.0,30.10,South,177,0.0,3.0,17,0.00,,,0.00,weatherlink.com 1.10,2013-05-02 17:23:00,
2013-05-02 10:38:00,80.7,29.0,30.11,SSW,196,2.0,2.0,15,0.00,,,0.00,weatherlink.com 1.10,2013-05-02 17:38:00,
2013-05-02 10:53:00,81.7,28.0,30.11,South,173,0.0,3.0,14,0.00,,,0.00,weatherlink.com 1.10,2013-05-02 17:53:00,
2013-05-02 11:08:00,82.9,27.0,30.11,SSE,150,2.0,3.0,13,0.00,,,0.00,weatherlink.com 1.10,2013-05-02 18:08:00,
2013-05-02 11:23:00,84.2,28.0,30.11,SW,223,2.0,3.0,13,0.00,,,0.00,weatherlink.com 1.10,2013-05-02 18:23:00,
2013-05-02 11:38:00,85.2,29.0,30.11,NE,48,1.0,3.0,13,0.00,,,0.00,weatherlink.com 1.10,2013-05-02 18:38:00,
2013-05-02 11:53:00,86.0,28.0,30.11,SSW,210,1.0,3.0,12,0.00,,,0.00,weatherlink.com 1.10,2013-05-02 18:53:00,
2013-05-02 12:08:00,87.1,26.0,30.11,SSW,210,1.0,4.0,11,0.00,,,0.00,weatherlink.com 1.10,2013-05-02 19:08:00,
2013-05-02 12:23:00,88.4,30.0,30.10,South,176,0.0,3.0,12,0.00,,,0.00,weatherlink.com 1.10,2013-05-02 19:23:00,
2013-05-02 12:38:00,88.9,30.0,30.10,SSW,211,0.0,2.0,12,0.00,,,0.00,weatherlink.com 1.10,2013-05-02 19:38:00,
2013-05-02 12:53:00,90.0,29.0,30.09,WSW,247,0.0,3.0,11,0.00,,,0.00,weatherlink.com 1.10,2013-05-02 19:53:00,
2013-05-02 13:23:00,90.5,27.0,30.09,South,188,0.0,4.0,10,0.00,,,0.00,weatherlink.com 1.10,2013-05-02 20:23:00,
2013-05-02 13:38:00,91.6,28.0,30.09,SSE,157,0.0,3.0,10,0.00,,,0.00,weatherlink.com 1.10,2013-05-02 20:38:00,
2013-05-02 13:53:00,91.8,28.0,30.08,SSE,151,2.0,4.0,10,0.00,,,0.00,weatherlink.com 1.10,2013-05-02 20:53:00,
2013-05-02 14:08:00,92.7,26.0,30.08,South,181,0.0,3.0,9,0.00,,,0.00,weatherlink.com 1.10,2013-05-02 21:08:00,
2013-05-02 14:23:00,93.6,27.0,30.07,SW,224,0.0,3.0,9,0.00,,,0.00,weatherlink.com 1.10,2013-05-02 21:23:00,
2013-05-02 14:38:00,94.0,27.0,30.07,West,269,0.0,2.0,9,0.00,,,0.00,weatherlink.com 1.10,2013-05-02 21:38:00,
2013-05-02 14:53:00,93.6,27.0,30.07,South,184,2.0,3.0,9,0.00,,,0.00,weatherlink.com 1.10,2013-05-02 21:53:00,
2013-05-02 15:08:00,93.9,30.0,30.06,SSW,208,1.0,6.0,10,0.00,,,0.00,weatherlink.com 1.10,2013-05-02 22:08:00,
2013-05-02 15:23:00,94.5,27.0,30.05,South,184,0.0,3.0,9,0.00,,,0.00,weatherlink.com 1.10,2013-05-02 22:23:00,
2013-05-02 15:38:00,95.9,28.0,30.05,SSE,147,1.0,4.0,9,0.00,,,0.00,weatherlink.com 1.10,2013-05-02 22:38:00,
2013-05-02 15:53:00,96.2,31.0,30.04,WSW,258,0.0,2.0,10,0.00,,,0.00,weatherlink.com 1.10,2013-05-02 22:53:00,
2013-05-02 16:08:00,95.2,28.0,30.04,South,170,1.0,5.0,9,0.00,,,0.00,weatherlink.com 1.10,2013-05-02 23:08:00,
2013-05-02 16:23:00,96.3,34.0,30.03,SW,223,0.0,4.0,11,0.00,,,0.00,weatherlink.com 1.10,2013-05-02 23:23:00,
2013-05-02 16:38:00,94.4,36.0,30.03,NNW,348,3.0,9.0,13,0.00,,,0.00,weatherlink.com 1.10,2013-05-02 23:38:00,
2013-05-02 16:54:00,92.6,33.0,30.03,NE,42,3.0,8.0,12,0.00,,,0.00,weatherlink.com 1.10,2013-05-02 23:54:00,
2013-05-02 17:09:00,91.1,32.0,30.03,NE,37,0.0,10.0,12,0.00,,,0.00,weatherlink.com 1.10,2013-05-03 00:09:00,
2013-05-02 17:24:00,89.8,29.0,30.04,North,352,1.0,7.0,11,0.00,,,0.00,weatherlink.com 1.10,2013-05-03 00:24:00,
2013-05-02 17:39:00,87.4,29.0,30.04,ENE,65,7.0,7.0,12,0.00,,,0.00,weatherlink.com 1.10,2013-05-03 00:39:00,
2013-05-02 17:54:00,85.9,28.0,30.04,NNE,25,4.0,9.0,12,0.00,,,0.00,weatherlink.com 1.10,2013-05-03 00:54:00,
2013-05-02 18:09:00,84.3,26.0,30.04,NE,53,2.0,7.0,12,0.00,,,0.00,weatherlink.com 1.10,2013-05-03 01:09:00,
2013-05-02 18:24:00,82.9,23.0,30.03,NW,319,2.0,11.0,11,0.00,,,0.00,weatherlink.com 1.10,2013-05-03 01:24:00,
2013-05-02 18:39:00,81.9,20.0,30.03,NNE,32,3.0,6.0,10,0.00,,,0.00,weatherlink.com 1.10,2013-05-03 01:39:00,
2013-05-02 18:54:00,80.8,21.0,30.03,NE,36,4.0,6.0,11,0.00,,,0.00,weatherlink.com 1.10,2013-05-03 01:54:00,
2013-05-02 19:09:00,79.4,22.0,30.03,North,356,1.0,5.0,12,0.00,,,0.00,weatherlink.com 1.10,2013-05-03 02:09:00,
2013-05-02 19:24:00,78.1,23.0,30.03,NNE,13,1.0,4.0,13,0.00,,,0.00,weatherlink.com 1.10,2013-05-03 02:24:00,
2013-05-02 19:39:00,76.8,20.0,30.03,ENE,71,1.0,4.0,12,0.00,,,0.00,weatherlink.com 1.10,2013-05-03 02:39:00,
2013-05-02 19:54:00,75.3,21.0,30.03,NNE,32,0.0,2.0,13,0.00,,,0.00,weatherlink.com 1.10,2013-05-03 02:54:00,
2013-05-02 20:09:00,73.6,20.0,30.03,SSE,160,0.0,4.0,13,0.00,,,0.00,weatherlink.com 1.10,2013-05-03 03:09:00,
2013-05-02 20:24:00,71.6,20.0,30.03,SSW,203,0.0,1.0,14,0.00,,,0.00,weatherlink.com 1.10,2013-05-03 03:24:00,
2013-05-02 20:39:00,70.8,21.0,30.03,SSE,153,0.0,2.0,15,0.00,,,0.00,weatherlink.com 1.10,2013-05-03 03:39:00,
2013-05-02 20:54:00,69.8,26.0,30.03,West,271,0.0,1.0,19,0.00,,,0.00,weatherlink.com 1.10,2013-05-03 03:54:00,
2013-05-02 21:09:00,67.5,27.0,30.03,West,271,0.0,0.0,22,0.00,,,0.00,weatherlink.com 1.10,2013-05-03 04:09:00,
2013-05-02 21:24:00,65.1,28.0,30.03,West,269,0.0,1.0,25,0.00,,,0.00,weatherlink.com 1.10,2013-05-03 04:24:00,
2013-05-02 21:39:00,64.7,27.0,30.03,WSW,250,0.0,0.0,24,0.00,,,0.00,weatherlink.com 1.10,2013-05-03 04:39:00,
2013-05-02 21:54:00,64.3,27.0,30.04,ESE,117,0.0,1.0,24,0.00,,,0.00,weatherlink.com 1.10,2013-05-03 04:54:00,
2013-05-02 22:09:00,62.8,27.0,30.03,ENE,65,0.0,1.0,26,0.00,,,0.00,weatherlink.com 1.10,2013-05-03 05:09:00,
2013-05-02 22:24:00,64.2,25.0,30.03,SSE,166,0.0,3.0,23,0.00,,,0.00,weatherlink.com 1.10,2013-05-03 05:24:00,
2013-05-02 22:39:00,64.1,28.0,30.03,SSW,202,0.0,1.0,26,0.00,,,0.00,weatherlink.com 1.10,2013-05-03 05:39:00,
2013-05-02 22:54:00,63.0,30.0,30.03,SSW,204,0.0,1.0,29,0.00,,,0.00,weatherlink.com 1.10,2013-05-03 05:54:00,
2013-05-02 23:09:00,63.0,31.0,30.03,South,180,0.0,2.0,30,0.00,,,0.00,weatherlink.com 1.10,2013-05-03 06:09:00,
2013-05-02 23:24:00,62.5,31.0,30.03,SSW,195,0.0,0.0,31,0.00,,,0.00,weatherlink.com 1.10,2013-05-03 06:24:00,
2013-05-02 23:39:00,60.6,32.0,30.03,SSW,195,0.0,0.0,34,0.00,,,0.00,weatherlink.com 1.10,2013-05-03 06:39:00,
2013-05-02 23:54:00,58.9,36.0,30.03,SSW,196,0.0,0.0,42,0.00,,,0.00,weatherlink.com 1.10,2013-05-03 06:54:00,